Location: Lawrence
(38.9720°N, 95.2350°W)
Time: 02:35:59
(UTC-05:00)

ISS - Visible Passes

Search period start: 26 April 2018 00:00
Search period end: 06 May 2018 00:00
Orbit: 403 x 406 km, 51.6° (Epoch: 26 April)

Date Brightness Start Highest point End Pass type
(mag) Time Alt. Az. Time Alt. Az. Time Alt. Az.
30 Apr -1.3 05:19:21 10° S 05:21:24 16° SE 05:23:29 10° E visible
02 May -2.9 05:10:58 18° SSW 05:12:59 39° SE 05:16:05 10° ENE visible
03 May -1.8 04:20:47 20° SE 04:20:48 20° SE 04:23:15 10° E visible
04 May -3.9 05:03:09 29° WSW 05:04:40 77° NW 05:07:56 10° NE visible
05 May -3.1 04:12:48 46° ESE 04:12:48 46° ESE 04:15:32 10° ENE visible
05 May -1.9 05:46:25 10° WNW 05:48:59 21° NNW 05:51:35 10° NNE visible
